Location: Songkhla
(7.2000°N, 100.6000°E)
Time: 07:33:53
(UTC+07:00)

SJ-7 - Pass Details

Date: 16 April 2026
Orbit: 491 x 515 km, 97.7° (Epoch: 17 May)

Event Time Altitude Azimuth Distance (km) Brightness Sun altitude
Exits shadow 19:20:37 - 159° (SSE) 1,856 6.7 -14.1°
Reaches altitude 10° 19:20:57 10° 158° (SSE) 1,720 6.5 -14.2°
Maximum altitude 19:24:36 59° 79° (ENE) 594 4.1 -15.1°
Drops below altitude 10° 19:28:16 10° 359° (N) 1,729 7.0 -15.9°
Sets 19:30:23 0° 355° (N) 2,616 8.0 -16.5°
